Regional Weather Roundup
Issued by NWS Sterling, VA

Home | Current Version | Previous Version | Graphics & Text | Print | Product List | Glossary On
Versions: 1 2 3 4 5 6 7 8 9 10 11 12 13 14 15 16 17 18 19 20 21 22 23 24 25 26 27 28 29 30 31 32 33 34 35 36 37 38 39 40 41 42 43 44 45 46 47 48 49 50
605
ASUS41 KLWX 231410
RWRLWX

REGIONAL WEATHER ROUNDUP
NATIONAL WEATHER SERVICE BALTIMORE MD/WASHINGTON DC
1000 AM EDT THU MAR 23 2017

Note: "FAIR" indicates few or no clouds below 12,000 feet
with no significant weather and/or obstructions to visibility.
 TC=TEMPERATURE CELSIUS

 * =Non NWS site. Station does not report precipitation (e.g. rain,
    snow, etc.), thunder, or fog.

DCZ001-MDZ009-015-VAZ040>042-051-053>054-231500-
WASHINGTON METRO

CITY           SKY/WX    TMP DP  RH WIND       PRES   REMARKS
WASHINGTON NAT SUNNY     34   6  31 NE6       30.68R
DULLES         SUNNY     32   2  27 NE3       30.65R
ANDREWS AFB    SUNNY     32   4  31 NE6       30.65R
FT BELVOIR     SUNNY     34   4  27 VRB5      30.67R
QUANTICO       SUNNY     35   9  33 NE8       30.69R WCI  29
COLLEGE PARK*  SUNNY     32   7  34 CALM      30.67R
LEESBURG*      SUNNY     32   9  37 NE5       30.66S
MANASSAS*      SUNNY     34   6  31 VRB5      30.66R
GAITHERSBURG*  SUNNY     30   3  31 E3        30.68R

$$

MDZ006>007-011-014-231500-
BALTIMORE METRO

CITY           SKY/WX    TMP DP  RH WIND       PRES   REMARKS
BWI AIRPORT    SUNNY     33   4  29 VRB7      30.65R
MD SCIENCE CTR   N/A     34   4  28 MISG      30.69R
MARTIN STATE   SUNNY     34   9  35 N3        30.68R
ANNAPOLIS      SUNNY     33   8  35 NE7       30.67R
FORT MEADE*    SUNNY     32   7  34 NE6       30.68S

$$

MDZ012-015-019>023-231500-
MARYLAND EASTERN SHORE

CITY           SKY/WX    TMP DP  RH WIND       PRES   REMARKS
OCEAN CITY     SUNNY     33  11  39 N13G18    30.65R WCI  24
SALISBURY      SUNNY     32  10  40 NE9       30.66R WCI  24
BAY BRIDGE AP* SUNNY     32   9  37 N9        30.67R WCI  24
CAMBRIDGE*     SUNNY     32   3  29 NE9G15    30.67R WCI  24
EASTON*        SUNNY     32   3  29 NE8       30.70R WCI  25

$$

MDZ017>025-231500-
SOUTHERN MARYLAND

CITY           SKY/WX    TMP DP  RH WIND       PRES   REMARKS
PATUXENT RIVER MOSUNNY   34  12  40 NE6       30.67R
ST INIGOES     SUNNY     33   8  35 MISG      30.66R
LEONARDTOWN*   SUNNY     32  10  40 NE5       30.68R

$$

MDZ003>005-231500-
NORTH CENTRAL MARYLAND

CITY           SKY/WX    TMP DP  RH WIND       PRES   REMARKS
FREDERICK*     SUNNY     34  10  37 VRB3      30.68R
HAGERSTOWN APT SUNNY     31   6  35 NE7       30.61R
WESTMINSTER*   SUNNY     30   9  40 NE5       30.61R

$$

MDZ501>502-231500-
WESTERN MARYLAND

CITY           SKY/WX    TMP DP  RH WIND       PRES   REMARKS
OAKLAND*       SUNNY     27   5  39 SE10      30.43R WCI  17
CUMBERLAND*    SUNNY     32   9  37 CALM      30.65S

$$

VAZ025>031-231500-
SHENANDOAH VALLEY

CITY           SKY/WX    TMP DP  RH WIND       PRES   REMARKS
WINCHESTER*    SUNNY     30   5  34 E3        30.62R
FRONT ROYAL*   SUNNY     32  10  40 N3        30.61S
LURAY*         SUNNY     32  12  43 NE6       30.59S
NEW MARKET*    SUNNY     32  10  40 CALM      30.58S
STAUNTON*      SUNNY     31  13  45 SE3       30.59F
WAYNESBORO*    SUNNY     33   9  36 E6        30.56S

$$

WVZ021-048>050-054>055-231500-
EASTERN WEST VIRGINIA PANHANDLE

CITY           SKY/WX    TMP DP  RH WIND       PRES   REMARKS
MARTINSBURG    SUNNY     30   5  34 CALM      30.63R
PETERSBURG*    SUNNY     31  16  54 CALM      30.60R

$$

VAZ036>039-050-231500-
CENTRAL FOOTHILLS

CITY           SKY/WX    TMP DP  RH WIND       PRES   REMARKS
CHARLOTTESVILL SUNNY     36   5  27 E8        30.62R
CULPEPER*      SUNNY     35   7  30 CALM      30.66R
ORANGE*        SUNNY     34   9  35 N5        30.65S
GORDONSVILLE*  SUNNY     35   7  31 NE6       30.63R
WARRENTON*     SUNNY     36   4  25 E6        30.64S

$$

VAZ055>057-231500-
NORTH AND CENTRAL PIEDMONT

CITY           SKY/WX    TMP DP  RH WIND       PRES   REMARKS
FREDERICKSBRG* SUNNY     36  11  35 NE8       30.66R
STAFFORD*      SUNNY     33   8  33 E7        30.70R

$$

NCZ024-NYZ072-PAZ021-071-VAZ022-071-231500-
OTHER REGIONAL OBSERVATIONS

CITY           SKY/WX    TMP DP  RH WIND       PRES   REMARKS
NEW YORK CITY  SUNNY     27   2  34 W7        30.62R
PHILADELPHIA   MOSUNNY   31   7  36 N9        30.65R WCI  23
PITTSBURGH     MOSUNNY   28  12  51 E9        30.54S WCI  19
ROANOKE        SUNNY     37   8  30 SE15      30.61R WCI  28
RICHMOND       MOSUNNY   37  14  38 E13       30.65R WCI  29
RALEIGH        SUNNY     43  14  31 NE9       30.60R

$$

ANZ530>537-231500-
MARINE OBSERVATIONS

STATION/POSITION TIME  TEMP    WIND        PRES
                       AIR SEA DIR/SP/G
                 (UTC) (F)     (DEG/KT/KT) (MB)
THOMAS PT LIGHT  1400   31 42   10/  6/  7   N/A
BALT KEY BRIDGE  1336   30     350/  7/  9 1038.5R
COVE POINT       1336   30      50/ 10/ 16 1038.9R
LEWISETTA        1336   33 46   60/  9/ 13 1038.1R
SOLOMONS ISLAND  1306   31 44   20/  8/ 14   N/A
PINEY POINT      1348           30/  9/ 12   N/A

$$





USA.gov is the U.S. government's official web portal to all federal, state and local government web resources and services.